Weather History for KCIN - April, 2013

Change the Weather History Date:

Sunday, April 7, 2013

  Actual Average Record
Temperature  
Mean Temperature 47 °F -  
Max Temperature 64 °F 61 °F 83 °F (1988)
Min Temperature 30 °F 35 °F 14 °F (2007)
Degree Days  
Heating Degree Days 18    
Moisture  
Dew Point 39 °F    
Average Humidity 77    
Maximum Humidity 100    
Minimum Humidity 45    
Precipitation  
Precipitation 0.00 in - - ()
Sea Level Pressure  
Sea Level Pressure 29.80 in    
Wind  
Wind Speed 6 mph (East)    
Max Wind Speed 21 mph    
Max Gust Speed 26 mph    
Visibility 7 miles    
Events Fog , Rain    
Averages and records for this station are not official NWS values.
T = Trace of Precipitation, MM = Missing Value Source: NWS Daily Summary

Daily Weather History Graph

Daily Weather History Graph

Search for Another Location

Airport or City:

Trip Planner

Search our weather history database for the weather conditions in past years. The results will help you decide how hot, cold, wet, or windy it might be!

Date:

Astronomy

Apr. 07, 2013 Rise Set
Actual Time 6:51 AM CDT 7:51 PM CDT
Civil Twilight 6:22 AM CDT 8:20 PM CDT
Nautical Twilight 5:48 AM CDT 8:54 PM CDT
Astronomical Twilight 5:13 AM CDT 9:30 PM CDT
Moon 5:11 AM CDT (4/7) 5:22 PM CDT (4/7)
Length of Visible Light 13h 57m
Length of Day
13h 00m
Waning Crescent, 8% of the Moon is Illuminated
Apr 7
Waning Crescent
Apr 10
New
Apr 18
First Quarter
Apr 25
Full
May 2
Last Quarter

Hourly Weather History & Observations

Time (CDT) Temp. Windchill Dew Point Humidity Pressure Visibility Wind Dir Wind Speed Gust Speed Precip Events Conditions
12:15 AM 39.2 °F - 39.2 °F 100% 29.80 in 6.0 mi Calm Calm - N/A   Clear
12:35 AM 39.2 °F - 37.4 °F 93% 29.81 in 7.0 mi Calm Calm - N/A   Clear
12:55 AM 37.4 °F - 35.6 °F 93% 29.82 in 5.0 mi Calm Calm - N/A   Clear
1:15 AM 35.6 °F 31.7 °F 33.8 °F 93% 29.83 in 4.0 mi NNW 4.6 mph - N/A   Clear
1:35 AM 37.4 °F 33.8 °F 37.4 °F 100% 29.83 in 6.0 mi North 4.6 mph - N/A   Clear
1:55 AM 39.2 °F - 37.4 °F 93% 29.83 in 7.0 mi Calm Calm - N/A   Clear
2:15 AM 35.6 °F - 35.6 °F 100% 29.83 in 6.0 mi Calm Calm - N/A   Clear
2:35 AM 35.6 °F - 35.6 °F 100% 29.84 in 6.0 mi Calm Calm - N/A   Clear
2:55 AM 37.4 °F - 37.4 °F 100% 29.84 in 4.0 mi Calm Calm - N/A   Clear
3:15 AM 32.0 °F - 32.0 °F 100% 29.84 in 5.0 mi Calm Calm - N/A   Clear
3:35 AM 32.0 °F - 32.0 °F 100% 29.84 in 1.8 mi Calm Calm - N/A   Clear
3:55 AM 33.8 °F - 33.8 °F 100% 29.85 in 1.8 mi Calm Calm - N/A   Clear
4:15 AM 32.0 °F - 32.0 °F 100% 29.85 in 2.5 mi Calm Calm - N/A   Clear
4:35 AM 32.0 °F - 32.0 °F 100% 29.84 in 0.2 mi Calm Calm - N/A Fog Light Freezing Fog
4:55 AM 30.2 °F - 30.2 °F 100% 29.85 in 0.2 mi Calm Calm - N/A Fog Light Freezing Fog
5:15 AM - - - N/A% 29.85 in 0.2 mi Calm Calm - N/A Fog Light Freezing Fog
5:35 AM 30.2 °F - 30.2 °F 100% 29.85 in 0.2 mi Calm Calm - N/A Fog Light Freezing Fog
5:55 AM 32.0 °F 28.7 °F 32.0 °F 100% 29.86 in 2.5 mi NE 3.5 mph - N/A   Partly Cloudy
6:15 AM 30.2 °F 25.4 °F 30.2 °F 100% 29.86 in 1.5 mi NNE 4.6 mph - N/A   Scattered Clouds
6:35 AM 30.2 °F 24.3 °F 30.2 °F 100% 29.86 in 0.2 mi NNE 5.8 mph - N/A Fog Light Freezing Fog
6:55 AM 30.2 °F 24.3 °F 30.2 °F 100% 29.87 in 1.5 mi NNE 5.8 mph - N/A   Mostly Cloudy
7:15 AM - - - N/A% 29.88 in 0.2 mi NE 5.8 mph - N/A   Overcast
7:35 AM 32.0 °F 26.4 °F 32.0 °F 100% 29.89 in 0.2 mi NE 5.8 mph - N/A Fog Light Freezing Fog
7:55 AM 32.0 °F 24.2 °F 32.0 °F 100% 29.89 in 0.2 mi ENE 9.2 mph - N/A Fog Light Freezing Fog
8:15 AM 32.0 °F 26.4 °F 32.0 °F 100% 29.91 in 0.2 mi ENE 5.8 mph - N/A Fog Light Freezing Fog
8:35 AM 32.0 °F 25.6 °F 32.0 °F 100% 29.91 in 0.2 mi ENE 6.9 mph - N/A Fog Fog
8:55 AM 32.0 °F 25.6 °F 32.0 °F 100% 29.91 in 0.2 mi ENE 6.9 mph - N/A Fog Fog
9:15 AM 33.8 °F 27.0 °F 33.8 °F 100% 29.92 in 0.2 mi ENE 8.1 mph - N/A Fog Fog
9:35 AM 33.8 °F 27.0 °F 33.8 °F 100% 29.91 in 1.2 mi ENE 8.1 mph - N/A   Overcast
9:55 AM 35.6 °F 30.7 °F 35.6 °F 100% 29.91 in 2.5 mi ENE 5.8 mph 12.7 mph N/A   Overcast
10:15 AM 37.4 °F 30.8 °F 37.4 °F 100% 29.89 in 4.0 mi ENE 9.2 mph - N/A   Overcast
10:55 AM 39.2 °F 33.0 °F 37.4 °F 93% 29.91 in 6.0 mi ESE 9.2 mph - N/A   Mostly Cloudy
11:15 AM 41.0 °F 35.2 °F 37.4 °F 87% 29.91 in 9.0 mi ESE 9.2 mph - N/A   Scattered Clouds
11:35 AM 44.6 °F 37.4 °F 37.4 °F 76% 29.89 in 10.0 mi East 16.1 mph - N/A   Partly Cloudy
11:55 AM 44.6 °F 38.8 °F 37.4 °F 76% 29.90 in 10.0 mi ESE 11.5 mph - N/A   Scattered Clouds
12:15 PM 46.4 °F 41.1 °F 37.4 °F 71% 29.89 in 10.0 mi SE 11.5 mph - N/A   Partly Cloudy
12:35 PM 50.0 °F - 39.2 °F 66% 29.88 in 10.0 mi ESE 12.7 mph - N/A   Partly Cloudy
12:55 PM 51.8 °F - 39.2 °F 62% 29.86 in 10.0 mi ESE 13.8 mph - N/A   Partly Cloudy
1:15 PM 53.6 °F - 39.2 °F 58% 29.85 in 10.0 mi ESE 16.1 mph - N/A   Scattered Clouds
1:35 PM 55.4 °F - 39.2 °F 54% 29.85 in 10.0 mi ESE 13.8 mph - N/A   Mostly Cloudy
1:55 PM 55.4 °F - 39.2 °F 54% 29.84 in 9.0 mi ESE 12.7 mph - N/A   Mostly Cloudy
2:15 PM 57.2 °F - 41.0 °F 55% 29.82 in 8.0 mi ESE 16.1 mph 21.9 mph N/A   Mostly Cloudy
2:35 PM 59.0 °F - 41.0 °F 51% 29.81 in 10.0 mi ESE 17.3 mph 24.2 mph N/A   Mostly Cloudy
2:55 PM 62.6 °F - 41.0 °F 45% 29.80 in 10.0 mi ESE 20.7 mph 26.5 mph N/A   Scattered Clouds
3:15 PM 60.8 °F - 41.0 °F 48% 29.79 in 10.0 mi ESE 20.7 mph - N/A   Clear
3:35 PM 60.8 °F - 42.8 °F 52% 29.78 in 10.0 mi ESE 19.6 mph 26.5 mph N/A   Clear
3:55 PM 62.6 °F - 41.0 °F 45% 29.77 in 10.0 mi SE 19.6 mph 26.5 mph N/A   Clear
4:15 PM 60.8 °F - 41.0 °F 48% 29.76 in 10.0 mi SE 18.4 mph - N/A   Mostly Cloudy
4:35 PM 62.6 °F - 42.8 °F 48% 29.75 in 10.0 mi ESE 17.3 mph 24.2 mph N/A   Overcast
4:55 PM 62.6 °F - 42.8 °F 48% 29.74 in 10.0 mi ESE 19.6 mph - N/A   Mostly Cloudy
5:15 PM 64.4 °F - 42.8 °F 45% 29.73 in 10.0 mi ESE 17.3 mph - N/A   Partly Cloudy
5:35 PM 64.4 °F - 42.8 °F 45% 29.72 in 10.0 mi ESE 19.6 mph - N/A   Clear
5:55 PM 62.6 °F - 42.8 °F 48% 29.72 in 10.0 mi ESE 15.0 mph 23.0 mph N/A   Clear
6:15 PM 64.4 °F - 42.8 °F 45% 29.71 in 10.0 mi ESE 17.3 mph 24.2 mph N/A   Scattered Clouds
6:35 PM 62.6 °F - 42.8 °F 48% 29.70 in 10.0 mi East 13.8 mph - N/A   Mostly Cloudy
6:55 PM 62.6 °F - 42.8 °F 48% 29.69 in 10.0 mi ESE 15.0 mph - N/A   Mostly Cloudy
7:15 PM 59.0 °F - 46.4 °F 63% 29.72 in 8.0 mi West 10.4 mph 25.3 mph N/A Rain Light Rain
7:35 PM 60.8 °F - 46.4 °F 59% 29.72 in 10.0 mi SE 6.9 mph - N/A   Overcast
7:55 PM 59.0 °F - 46.4 °F 63% 29.69 in 10.0 mi ENE 9.2 mph - N/A   Overcast
8:15 PM 57.2 °F - 48.2 °F 72% 29.69 in 10.0 mi ESE 10.4 mph - N/A   Overcast
8:35 PM 57.2 °F - 46.4 °F 67% 29.68 in 10.0 mi ESE 10.4 mph - N/A   Overcast
8:55 PM 55.4 °F - 46.4 °F 72% 29.68 in 10.0 mi ESE 8.1 mph - N/A   Overcast
9:15 PM 55.4 °F - 46.4 °F 72% 29.68 in 10.0 mi SE 5.8 mph - N/A   Overcast
9:35 PM 55.4 °F - 46.4 °F 72% 29.68 in 10.0 mi Calm Calm - N/A   Overcast
9:55 PM 57.2 °F - 46.4 °F 67% 29.67 in 10.0 mi ESE 10.4 mph - N/A   Overcast
10:15 PM 55.4 °F - 46.4 °F 72% 29.67 in 10.0 mi SE 6.9 mph - N/A   Unknown
10:35 PM 55.4 °F - 46.4 °F 72% 29.67 in 10.0 mi Calm Calm - N/A   Overcast
10:55 PM 55.4 °F - 44.6 °F 67% 29.66 in 10.0 mi ENE 4.6 mph - N/A   Overcast
11:15 PM 53.6 °F - 44.6 °F 72% 29.66 in 10.0 mi East 4.6 mph - N/A   Overcast
11:35 PM 53.6 °F - 44.6 °F 72% 29.65 in 10.0 mi East 5.8 mph - N/A   Overcast
11:55 PM 53.6 °F - 44.6 °F 72% 29.65 in 10.0 mi Calm Calm - N/A   Overcast